HB9EKO-12 Weather Reports


time (UTC)temp
C
wind
direction
speed
KPH
gust
KPH
rain 1hr
cm
rain 24hr
cm
rain mn
cm
humidity
%
barometer
mb
20260506050706 10 0 0.0 0.0 0.00 0.00 0.00 10 1009.0
20260506043656 9 0 0.0 0.0 0.00 0.00 0.00 10 1009.0
20260506040645 10 0 0.0 0.0 0.00 0.00 0.00 10 1009.0
20260506035140 10 0 0.0 0.0 0.00 0.00 0.00 10 1009.0
20260506033635 10 0 0.0 0.0 0.00 0.00 0.00 10 1009.0
20260506032129 10 0 0.0 0.0 0.00 0.00 0.00 10 1009.0
20260506030624 10 0 0.0 0.0 0.00 0.00 0.00 10 1009.0
20260506025119 11 0 0.0 0.0 0.00 0.00 0.00 10 1009.0
20260506023614 11 0 0.0 0.0 0.00 0.00 0.00 10 1009.0
20260506022108 11 0 0.0 0.0 0.00 0.00 0.00 10 1009.0
20260506020603 11 0 0.0 0.0 0.00 0.00 0.00 10 1010.0
20260506015058 11 0 0.0 0.0 0.00 0.00 0.00 99 1010.0
20260506013553 11 0 0.0 0.0 0.00 0.00 0.00 99 1010.0
20260506012047 11 0 0.0 0.0 0.00 0.00 0.00 10 1010.0
20260506010542 11 0 0.0 0.0 0.00 0.00 0.00 10 1010.0
20260506005037 11 0 0.0 0.0 0.00 0.00 0.00 10 1010.0
20260506003532 11 0 0.0 0.0 0.00 0.00 0.00 99 1010.0
20260506002026 11 0 0.0 0.0 0.00 0.00 0.00 99 1011.0
20260506000521 11 0 0.0 0.0 0.00 0.00 0.00 97 1011.0
20260505235016 11 0 0.0 0.0 0.00 0.00 0.00 97 1010.0
20260505233511 11 0 0.0 0.0 0.00 0.00 0.00 96 1011.0
20260505232005 12 0 0.0 0.0 0.00 0.00 0.00 94 1011.0
20260505230500 12 0 0.0 0.0 0.00 0.00 0.00 96 1011.0
20260505224955 12 0 0.0 0.0 0.00 0.00 0.00 96 1011.0
20260505223450 12 0 0.0 0.0 0.00 0.00 0.00 95 1011.0
20260505221945 12 0 0.0 0.0 0.00 0.00 0.00 96 1011.0
20260505220439 12 0 4.8 0.0 0.00 0.00 0.00 96 1011.0
20260505214934 12 0 0.0 0.0 0.00 0.00 0.00 97 1011.0
20260505213429 12 0 0.0 0.0 0.00 0.00 0.00 98 1011.0
20260505211924 12 0 0.0 0.0 0.00 0.00 0.00 10 1011.0
20260505210418 12 0 0.0 0.0 0.00 0.00 0.00 10 1011.0
20260505204913 12 0 0.0 0.0 0.00 0.00 0.00 10 1011.0
20260505203408 12 0 0.0 0.0 0.00 0.00 0.00 10 1011.0
20260505201903 12 0 0.0 0.0 0.00 0.00 0.00 10 1011.0
20260505194852 12 0 0.0 0.0 0.00 0.00 0.00 10 1011.0
20260505193347 12 0 0.0 0.0 0.00 0.00 0.00 10 1011.0
20260505191842 12 0 0.0 0.0 0.00 0.00 0.00 10 1011.0
20260505190336 12 0 11.3 0.0 0.00 0.00 0.00 10 1010.0
20260505184831 12 0 6.4 0.0 0.00 0.00 0.00 10 1010.0
20260505183326 12 0 12.9 0.0 0.00 0.00 0.00 10 1010.0
20260505181821 13 0 1.6 0.0 0.00 0.00 0.00 98 1010.0
20260505180315 13 0 8.0 0.0 0.00 0.00 0.00 98 1010.0
20260505174810 13 0 3.2 0.0 0.00 0.00 0.00 96 1010.0
20260505173305 13 0 12.9 0.0 0.00 0.00 0.00 94 1010.0
20260505171800 12 0 3.2 0.0 0.00 0.00 0.00 93 1010.0
20260505170255 13 0 4.8 0.0 0.00 0.00 0.00 85 1010.0
20260505164750 13 0 0.0 0.0 0.00 0.00 0.00 85 1010.0
20260505163244 13 0 0.0 0.0 0.00 0.00 0.00 81 1011.0
20260505161739 14 0 4.8 0.0 0.00 0.00 0.00 73 1010.0
20260505160234 15 0 3.2 0.0 0.00 0.00 0.00 65 1010.0
20260505153223 17 0 11.3 0.0 0.00 0.00 0.00 62 1010.0
20260505151718 18 0 1.6 0.0 0.00 0.00 0.00 61 1009.0
20260505150213 20 0 1.6 0.0 0.00 0.00 0.00 54 1009.0
20260505140152 19 0 8.0 0.0 0.00 0.00 0.00 63 1009.0
20260505130131 17 0 0.0 0.0 0.00 0.00 0.00 73 1010.0
20260505124625 17 0 0.0 0.0 0.00 0.00 0.00 70 1010.0
20260505123120 16 0 0.0 0.0 0.00 0.00 0.00 78 1010.0
20260505121615 16 0 1.6 0.0 0.00 0.00 0.00 79 1010.0
20260505120110 16 0 4.8 0.0 0.00 0.00 0.00 82 1010.0
20260505114605 16 0 0.0 0.0 0.00 0.00 0.00 84 1010.0
20260505113059 15 0 0.0 0.0 0.00 0.00 0.00 87 1010.0
20260505111554 15 0 0.0 0.0 0.00 0.00 0.00 93 1010.0
20260505101533 13 0 3.2 0.0 0.00 0.00 0.00 96 1010.0
20260505100028 13 0 0.0 0.0 0.00 0.00 0.00 10 1011.0
20260505094523 12 0 8.0 0.0 0.00 0.00 0.00 99 1011.0
20260505093017 13 0 0.0 0.0 0.00 0.00 0.00 98 1010.0
20260505091512 12 0 0.0 0.0 0.00 0.00 0.00 97 1011.0
20260505090007 13 0 0.0 0.0 0.00 0.00 0.00 95 1011.0
20260505084502 13 0 0.0 0.0 0.00 0.00 0.00 92 1011.0
20260505082956 13 0 0.0 0.0 0.00 0.00 0.00 87 1011.0
20260505081451 13 0 0.0 0.0 0.00 0.00 0.00 88 1011.0
20260505075946 13 0 0.0 0.0 0.00 0.00 0.00 88 1011.0
20260505074441 13 0 0.0 0.0 0.00 0.00 0.00 88 1011.0
20260505072935 13 0 0.0 0.0 0.00 0.00 0.00 88 1011.0
20260505071430 13 0 0.0 0.0 0.00 0.00 0.00 90 1011.0
20260505065925 12 0 0.0 0.0 0.00 0.00 0.00 93 1011.0
20260505064420 12 0 0.0 0.0 0.00 0.00 0.00 92 1011.0
20260505062915 12 0 0.0 0.0 0.00 0.00 0.00 93 1011.0
20260505061409 12 0 0.0 0.0 0.00 0.00 0.00 93 1011.0